Terminal Aerodrome Forecast
Issued by NWS

Home | Current Version | Previous Version | Text Only | Print | Product List | Glossary On
Versions: 1 2 3 4 5 6 7 8 9 10 11 12 13 14 15 16 17
000
FTUS44 KLZK 300500
TAFHRO
TAF
KHRO 300540Z 3006/3106 32006KT P6SM SKC
     FM301500 06004KT P6SM SCT250
     FM310000 12004KT P6SM BKN250=

USA.gov is the U.S. government's official web portal to all federal, state and local government web resources and services.